CW4541 Weather Reports


time (UTC)temp
F
wind
direction
speed
knots
gust
knots
rain 1hr
in
rain 24hr
in
rain mn
in
humidity
%
barometer
mb
20260505200606 61 0 2.6 13.9 0.00 0.00 0.00 8 1014.9
20260505200111 62 0 4.3 11.3 0.00 0.00 0.00 7 1014.8
20260505190606 60 0 2.6 8.7 0.00 0.00 0.00 8 1015.6
20260505180606 59 0 2.6 12.2 0.00 0.01 0.00 10 1016.0
20260505180111 59 0 0.9 6.1 0.00 0.01 0.00 11 1016.0
20260505170606 57 0 2.6 7.0 0.00 0.01 0.00 13 1016.2
20260505160605 54 0 1.7 7.0 0.00 0.01 0.00 18 1016.6
20260505160111 53 0 0.9 7.0 0.00 0.01 0.00 18 1016.7
20260505150606 50 0 0.9 7.0 0.00 0.01 0.00 21 1016.5
20260505150111 50 0 1.7 7.0 0.00 0.01 0.00 23 1016.5
20260505140605 43 0 0.9 5.2 0.00 0.01 0.00 30 1017.4
20260505130110 36 0 0.0 0.9 0.00 0.01 0.00 37 1017.8
20260505120605 35 0 0.9 4.3 0.00 0.01 0.00 38 1017.7
20260505120111 35 0 0.0 0.9 0.00 0.01 0.00 39 1017.6
20260505110605 37 0 0.9 2.6 0.00 0.01 0.00 34 1017.4
20260505100606 39 0 0.0 4.3 0.00 0.01 0.00 32 1017.2
20260505100111 39 0 0.9 4.3 0.00 0.01 0.00 33 1017.2
20260505090605 38 0 0.0 2.6 0.00 0.02 0.00 42 1016.9
20260505080605 40 0 0.0 0.0 0.00 0.02 0.00 38 1016.7
20260505080111 41 0 0.0 0.0 0.00 0.02 0.00 38 1016.7
20260505070606 44 0 0.0 0.0 0.00 0.06 0.00 33 1016.7
20260505070110 44 0 0.0 0.0 0.00 0.06 0.00 33 1016.8
20260505060606 44 0 0.0 1.7 0.00 0.06 0.00 34 1016.8
20260505050113 43 0 0.0 0.0 0.00 0.06 0.06 32 1016.6
20260505040607 45 0 0.0 0.0 0.00 0.06 0.06 29 1016.5
20260505030607 48 0 0.0 0.0 0.00 0.06 0.06 25 1016.1
20260505030113 48 0 0.0 0.0 0.00 0.06 0.06 25 1016.0
20260505020607 53 0 0.0 0.9 0.00 0.06 0.06 18 1015.2
20260505020113 53 0 0.0 1.7 0.00 0.06 0.06 17 1015.2
20260505010607 56 0 0.9 4.3 0.00 0.06 0.06 17 1015.3
20260505010113 56 0 0.9 4.3 0.00 0.06 0.06 17 1015.2
20260505000607 59 0 1.7 7.0 0.00 0.06 0.06 17 1015.5
20260505000112 59 0 1.7 7.0 0.00 0.06 0.06 16 1015.6
20260504230607 60 0 0.9 7.8 0.00 0.06 0.06 19 1015.2
20260504230112 60 0 1.7 7.8 0.00 0.06 0.06 18 1015.3
20260504220607 61 0 0.9 7.8 0.00 0.06 0.06 23 1015.2
20260504220111 61 0 2.6 8.7 0.00 0.06 0.06 20 1015.3
20260504210606 61 0 2.6 8.7 0.00 0.06 0.06 25 1015.7
20260504210112 61 0 3.5 7.8 0.00 0.06 0.06 25 1015.8